This demonstration page uses our WeatherBlox Daily Observations layout. Learn more.

Left ArrowRight Arrow

34.02893, -84.19858

Hourly Observations for December 9, 2022

Temp ( °F °C ) Dew Point ( °F °C ) Humidity (%) Winds ( mph kmh ) Pressure ( in mb ) Visibility ( mi km ) Precip ( " mm )
12:09 am 00:09 Partly Cloudy with Mist and Fog 60 15.6 59 15 96 96 Calm 30.13 1020 2 3 0.00 0.00
12:13 am 00:13 Partly Cloudy with Mist and Fog 60 15.6 59 15 96 96 Calm 30.13 1020 1 1 0.00 0.00
12:37 am 00:37 Mostly Cloudy with Mist and Fog 58 14.4 58 14.4 100 100 SSW 3 6 30.13 1020 1 2 0.00 0.00
12:47 am 00:47 Mostly Cloudy with Mist and Fog 57 14 57 14 100 100 SW 3 6 30.13 1020 3 5 0.00 0.00
12:53 am 00:53 Cloudy with Mist and Fog 58 14.4 58 14.4 100 100 SW 3 6 30.11 1020 4 6 0.00 0.00
1:53 am 01:53 Cloudy with Mist and Fog 62 16.7 60 15.6 93 93 SW 3 6 30.09 1019 6 10 0.00 0.00
2:53 am 02:53 Mostly Cloudy 61 16.1 60 15.6 97 97 WSW 5 7 30.09 1019 7 11 0.00 0.00
3:53 am 03:53 Cloudy 62 16.7 60 15.6 93 93 WSW 5 7 30.08 1019 8 13 0.00 0.00
4:53 am 04:53 Cloudy with Light Rain 63 17.2 60 15.6 90 90 W 5 7 30.08 1019 6 10 0.01 0.13
5:53 am 05:53 Cloudy 62 16.7 61 16.1 96 96 SW 3 6 30.08 1019 8 13 0.01 0.13
6:53 am 06:53 Cloudy with Mist and Fog 61 16.1 61 16.1 100 100 Calm 30.09 1019 5 8 0.00 0.00
7:27 am 07:27 Cloudy with Mist and Fog 61 16.1 61 16.1 100 100 Calm 30.11 1020 5 8 0.00 0.00
7:53 am 07:53 Cloudy with Mist and Fog 62 16.7 61 16.1 96 96 S 3 6 30.10 1019 5 8 0.00 0.00
8:53 am 08:53 Cloudy with Mist and Fog 64 17.8 61 16.1 90 90 Calm 30.11 1020 6 10 0.00 0.00
9:32 am 09:32 Cloudy 64 17.8 61 16.1 90 90 Calm 30.11 1020 7 11 0.00 0.00
9:53 am 09:53 Cloudy 64 17.8 61 16.1 90 90 Calm 30.13 1020 7 11 0.00 0.00
10:29 am 10:29 Cloudy with Light Rain 64 17.8 62 16.7 93 93 Calm 30.12 1020 5 8 0.01 0.25
10:53 am 10:53 Cloudy with Light Rain 64 17.8 62 16.7 93 93 S 3 6 30.12 1020 5 8 0.01 0.25
11:07 am 11:07 Cloudy with Light Rain 64 17.8 63 17.2 96 96 Calm 30.11 1020 2 3 0.01 0.25
11:19 am 11:19 Cloudy with Light Rain 64 17.8 62 16.7 93 93 WSW 3 6 30.12 1020 1 1 0.10 2.54
11:22 am 11:22 Cloudy with Heavy Rain 63 17.2 62 16.7 97 97 Calm 30.11 1020 1 1 0.17 4.32
11:30 am 11:30 Cloudy with Heavy Rain 63 17.2 63 17.2 100 100 Calm 30.11 1020 1 1 0.25 6.35
11:53 am 11:53 Cloudy with Heavy Rain 63 17.2 63 17.2 100 100 WSW 3 6 30.12 1020 0 0 0.47 11.94
12:12 pm 12:12 Cloudy with Heavy Rain 63 17.2 62 16.7 97 97 VRB 3 6 30.11 1019 1 1 0.31 7.87
12:21 pm 12:21 Cloudy with Light Rain 61 16.1 60 15.6 97 97 VRB 6 9 30.11 1020 2 3 0.32 8.13
12:29 pm 12:29 Cloudy with Light Rain 61 16.1 60 15.6 97 97 ENE 8 13 30.11 1020 3 5 0.35 8.89
12:37 pm 12:37 Cloudy with Rain 61 16.1 60 15.6 97 97 Calm 30.10 1019 2 3 0.39 9.91
12:53 pm 12:53 Cloudy with Light Rain 61 16.1 60 15.6 97 97 undefined N/A 30.09 1019 5 8 0.41 10.41
1:02 pm 13:02 Cloudy with Light Rain 60 15.6 60 15.6 100 100 Calm 30.09 1019 2 3 0.05 1.27
1:15 pm 13:15 Cloudy with Light Rain 60 15.6 60 15.6 100 100 E 5 7 30.09 1019 3 5 0.08 2.03
1:29 pm 13:29 Cloudy with Rain 60 15.6 60 15.6 100 100 VRB 3 6 30.09 1019 2 3 0.13 3.30
1:36 pm 13:36 Cloudy with Light Rain 60 15.6 59 15 96 96 Calm 30.09 1019 3 5 0.13 3.30
1:45 pm 13:45 Cloudy with Light Rain 60 15.6 59 15 96 96 NE 6 9 30.09 1019 2 3 0.14 3.56
1:53 pm 13:53 Cloudy with Light Rain 60 15.6 59 15 96 96 VRB 3 6 30.09 1019 4 6 0.15 3.81
2:53 pm 14:53 Cloudy with Light Rain 60 15.6 59 15 96 96 VRB 3 6 30.09 1019 5 8 0.08 2.03
3:00 pm 15:00 Cloudy with Light Rain 59 15 58 14.4 96 96 NNE 6 9 30.10 1019 6 10 0.01 0.25
3:53 pm 15:53 Cloudy 59 15 58 14.4 96 96 VRB 5 7 30.08 1019 9 14 0.08 2.03
4:31 pm 16:31 Cloudy with Rain 58 14.4 57 13.9 97 97 E 5 7 30.10 1019 2 3 0.06 1.52
4:39 pm 16:39 Cloudy with Light Rain 58 14.4 57 13.9 97 97 Calm 30.10 1019 3 5 0.07 1.78
4:48 pm 16:48 Cloudy with Light Rain 57 14 57 14 100 100 NE 3 6 30.10 1019 6 10 0.08 2.03
4:53 pm 16:53 Cloudy with Light Rain 58 14.4 57 13.9 97 97 VRB 3 6 30.09 1019 7 11 0.08 2.03
5:00 pm 17:00 Cloudy 58 14.4 57 13.9 97 97 VRB 5 7 30.10 1019 10 16 0.01 0.13
5:53 pm 17:53 Cloudy with Light Rain 57 13.9 56 13.3 96 96 Calm 30.10 1019 4 6 0.04 1.02
6:09 pm 18:09 Cloudy with Light Rain 57 13.9 56 13.3 96 96 undefined N/A 30.11 1019 3 5 0.02 0.51
6:31 pm 18:31 Cloudy with Light Rain 57 13.9 56 13.3 96 96 E 6 9 30.11 1019 3 5 0.06 1.52
6:53 pm 18:53 Cloudy 56 13.3 55 12.8 97 97 Calm 30.11 1020 9 14 0.06 1.52
7:53 pm 19:53 Cloudy 56 13.3 55 12.8 97 97 Calm 30.12 1020 10 16 0.00 0.00
8:53 pm 20:53 Cloudy 56 13.3 55 12.8 97 97 VRB 3 6 30.13 1020 10 16 0.00 0.00
9:53 pm 21:53 Cloudy 56 13.3 55 12.8 97 97 VRB 5 7 30.13 1020 10 16 0.00 0.00
10:53 pm 22:53 Cloudy 55 12.8 54 12.2 96 96 VRB 3 6 30.14 1021 10 16 0.00 0.00
11:00 pm 23:00 Cloudy 55 12.8 53 11.7 93 93 VRB 3 6 30.15 1021 10 16 0.00 0.00
11:13 pm 23:13 Cloudy 55 12.8 53 11.7 93 93 VRB 5 7 30.15 1021 10 16 0.00 0.00
11:40 pm 23:40 Cloudy with Mist and Fog 55 12.8 54 12.2 96 96 Calm 30.15 1021 6 10 0.00 0.00
11:53 pm 23:53 Cloudy with Mist and Fog 54 12.2 54 12.2 100 100 Calm 30.15 1021 3 5 0.00 0.00
11:59 pm 23:59 Cloudy with Mist and Fog 54 12.2 54 12.2 100 100 Calm 30.16 1021 3 4 0.00 0.00

Powered by AerisWeather